Location: Champs
(48.8539°N, 2.6040°E)
Time: 00:06:27
(UTC+00:00)

DMSP 5D-2 F13 DEB - Pass Details

Date: 19 August 2022
Orbit: 710 x 774 km, 98.8° (Epoch: 28 September)

Event Time Altitude Azimuth Distance (km) Brightness Sun altitude
Exits shadow 21:23:43 13° 77° (ENE) 2,124 ? -20.3°
Maximum altitude 21:25:31 15° 54° (NE) 1,987 ? -20.5°
Drops below altitude 10° 21:28:26 10° 19° (NNE) 2,347 ? -20.8°
Sets 21:31:40 0° 358° (N) 3,279 ? -21.1°
